Time,TemperatureF,DewpointF,PressureIn,WindDirection,WindDirectionDegrees,WindSpeedMPH,WindSpeedGustMPH,Humidity,HourlyPrecipIn,Conditions,Clouds,dailyrainin,SolarRadiationWatts/m^2,SoftwareType,DateUTC
2013-03-04 00:00:00,29.8,19.9,29.59,WNW,294,5.0,6.0,66,0.00,,,0.00,0,WeatherCatV1.14B232,2013-03-04 05:00:00,
2013-03-04 00:05:00,29.8,19.9,29.59,WNW,303,5.0,8.0,66,0.00,,,0.00,0,WeatherCatV1.14B232,2013-03-04 05:05:00,
2013-03-04 00:10:00,29.8,20.2,29.59,WNW,287,3.0,7.0,67,0.00,,,0.00,0,WeatherCatV1.14B232,2013-03-04 05:10:00,
2013-03-04 00:15:00,29.7,19.8,29.59,West,275,4.0,6.0,66,0.00,,,0.00,0,WeatherCatV1.14B232,2013-03-04 05:15:00,
2013-03-04 00:20:00,29.6,19.3,29.59,West,268,4.0,10.0,65,0.00,,,0.00,0,WeatherCatV1.14B232,2013-03-04 05:20:00,
2013-03-04 00:25:00,29.6,19.3,29.59,West,271,5.0,9.0,65,0.00,,,0.00,0,WeatherCatV1.14B232,2013-03-04 05:25:00,
2013-03-04 00:30:00,29.6,19.3,29.60,NW,306,8.0,12.0,65,0.00,,,0.00,0,WeatherCatV1.14B232,2013-03-04 05:30:00,
2013-03-04 00:35:00,29.5,19.2,29.59,NW,317,5.0,9.0,65,0.00,,,0.00,0,WeatherCatV1.14B232,2013-03-04 05:35:00,
2013-03-04 00:40:00,29.5,19.2,29.60,WNW,303,4.0,7.0,65,0.00,,,0.00,0,WeatherCatV1.14B232,2013-03-04 05:40:00,
2013-03-04 00:45:00,29.4,19.1,29.60,WNW,288,4.0,9.0,65,0.00,,,0.00,0,WeatherCatV1.14B232,2013-03-04 05:45:00,
2013-03-04 00:50:00,29.4,19.1,29.60,West,265,4.0,7.0,65,0.00,,,0.00,0,WeatherCatV1.14B232,2013-03-04 05:50:00,
2013-03-04 00:55:00,29.3,19.0,29.60,NW,310,5.0,8.0,65,0.00,,,0.00,0,WeatherCatV1.14B232,2013-03-04 05:55:00,
2013-03-04 01:00:00,29.2,18.9,29.60,NW,315,5.0,13.0,65,0.00,,,0.00,0,WeatherCatV1.14B232,2013-03-04 06:00:00,
2013-03-04 01:05:00,29.1,18.5,29.60,West,265,4.0,10.0,64,0.00,,,0.00,0,WeatherCatV1.14B232,2013-03-04 06:05:00,
2013-03-04 01:10:00,29.0,18.4,29.60,WNW,288,4.0,9.0,64,0.00,,,0.00,0,WeatherCatV1.14B232,2013-03-04 06:10:00,
2013-03-04 01:15:00,28.9,18.6,29.60,WNW,297,4.0,5.0,65,0.00,,,0.00,0,WeatherCatV1.14B232,2013-03-04 06:15:00,
2013-03-04 01:20:00,28.7,18.4,29.60,West,267,6.0,6.0,65,0.00,,,0.00,0,WeatherCatV1.14B232,2013-03-04 06:20:00,
2013-03-04 01:25:00,28.6,18.4,29.60,WNW,300,7.0,11.0,65,0.00,,,0.00,0,WeatherCatV1.14B232,2013-03-04 06:25:00,
2013-03-04 01:30:00,28.5,18.3,29.60,WNW,291,8.0,10.0,65,0.00,,,0.00,0,WeatherCatV1.14B232,2013-03-04 06:30:00,
2013-03-04 01:35:00,28.4,18.5,29.61,WNW,299,4.0,7.0,66,0.00,,,0.00,0,WeatherCatV1.14B232,2013-03-04 06:35:00,
2013-03-04 01:40:00,28.4,18.9,29.60,West,269,3.0,4.0,67,0.00,,,0.00,0,WeatherCatV1.14B232,2013-03-04 06:40:00,
2013-03-04 01:45:00,28.3,18.4,29.60,WNW,297,4.0,4.0,66,0.00,,,0.00,0,WeatherCatV1.14B232,2013-03-04 06:45:00,
2013-03-04 01:50:00,28.2,18.3,29.60,WNW,300,2.0,8.0,66,0.00,,,0.00,0,WeatherCatV1.14B232,2013-03-04 06:50:00,
2013-03-04 01:55:00,28.1,18.6,29.60,WNW,297,6.0,6.0,67,0.00,,,0.00,0,WeatherCatV1.14B232,2013-03-04 06:55:00,
2013-03-04 02:00:00,28.1,18.6,29.60,WNW,291,6.0,8.0,67,0.00,,,0.00,0,WeatherCatV1.14B232,2013-03-04 07:00:00,
2013-03-04 02:05:00,28.0,18.5,29.60,West,269,4.0,8.0,67,0.00,,,0.00,0,WeatherCatV1.14B232,2013-03-04 07:05:00,
2013-03-04 02:10:00,27.9,18.4,29.60,WNW,292,4.0,9.0,67,0.00,,,0.00,0,WeatherCatV1.14B232,2013-03-04 07:10:00,
2013-03-04 02:15:00,28.0,18.5,29.60,NW,304,7.0,13.0,67,0.00,,,0.00,0,WeatherCatV1.14B232,2013-03-04 07:15:00,
2013-03-04 02:20:00,27.9,18.4,29.59,WNW,290,6.0,9.0,67,0.00,,,0.00,0,WeatherCatV1.14B232,2013-03-04 07:20:00,
2013-03-04 02:25:00,27.9,18.7,29.59,West,276,4.0,5.0,68,0.00,,,0.00,0,WeatherCatV1.14B232,2013-03-04 07:25:00,
2013-03-04 02:30:00,27.9,18.4,29.60,WNW,299,3.0,11.0,67,0.00,,,0.00,0,WeatherCatV1.14B232,2013-03-04 07:30:00,
2013-03-04 02:35:00,27.9,18.4,29.60,NW,325,2.0,8.0,67,0.00,,,0.00,0,WeatherCatV1.14B232,2013-03-04 07:35:00,
2013-03-04 02:40:00,27.8,18.3,29.60,WNW,294,4.0,9.0,67,0.00,,,0.00,0,WeatherCatV1.14B232,2013-03-04 07:40:00,
2013-03-04 02:45:00,27.8,17.9,29.60,WNW,298,8.0,11.0,66,0.00,,,0.00,0,WeatherCatV1.14B232,2013-03-04 07:45:00,
2013-03-04 02:50:00,27.8,18.3,29.60,WNW,296,4.0,11.0,67,0.00,,,0.00,0,WeatherCatV1.14B232,2013-03-04 07:50:00,
2013-03-04 02:55:00,27.8,17.9,29.60,NW,309,1.0,11.0,66,0.00,,,0.00,0,WeatherCatV1.14B232,2013-03-04 07:55:00,
2013-03-04 03:00:00,27.7,17.8,29.60,WNW,286,3.0,15.0,66,0.00,,,0.00,0,WeatherCatV1.14B232,2013-03-04 08:00:00,
2013-03-04 03:05:00,27.7,17.8,29.60,West,280,8.0,10.0,66,0.00,,,0.00,0,WeatherCatV1.14B232,2013-03-04 08:05:00,
2013-03-04 03:10:00,27.7,17.8,29.60,WNW,300,4.0,11.0,66,0.00,,,0.00,0,WeatherCatV1.14B232,2013-03-04 08:10:00,
2013-03-04 03:15:00,27.7,17.8,29.60,WNW,284,4.0,6.0,66,0.00,,,0.00,0,WeatherCatV1.14B232,2013-03-04 08:15:00,
2013-03-04 03:20:00,27.6,18.4,29.60,West,265,2.0,9.0,68,0.00,,,0.00,0,WeatherCatV1.14B232,2013-03-04 08:20:00,
2013-03-04 03:25:00,27.6,18.4,29.60,WNW,295,4.0,9.0,68,0.00,,,0.00,0,WeatherCatV1.14B232,2013-03-04 08:25:00,
2013-03-04 03:30:00,27.6,18.1,29.60,West,277,5.0,7.0,67,0.00,,,0.00,0,WeatherCatV1.14B232,2013-03-04 08:30:00,
2013-03-04 03:35:00,27.6,18.4,29.60,West,267,7.0,7.0,68,0.00,,,0.00,0,WeatherCatV1.14B232,2013-03-04 08:35:00,
2013-03-04 03:40:00,27.6,18.4,29.60,WNW,286,9.0,10.0,68,0.00,,,0.00,0,WeatherCatV1.14B232,2013-03-04 08:40:00,
2013-03-04 03:45:00,27.6,18.4,29.60,WNW,286,4.0,7.0,68,0.00,,,0.00,0,WeatherCatV1.14B232,2013-03-04 08:45:00,
2013-03-04 03:50:00,27.6,18.4,29.60,WNW,291,3.0,4.0,68,0.00,,,0.00,0,WeatherCatV1.14B232,2013-03-04 08:50:00,
2013-03-04 03:55:00,27.6,18.8,29.61,WNW,296,5.0,10.0,69,0.00,,,0.00,0,WeatherCatV1.14B232,2013-03-04 08:55:00,
2013-03-04 04:00:00,27.6,18.8,29.61,WNW,292,4.0,7.0,69,0.00,,,0.00,0,WeatherCatV1.14B232,2013-03-04 09:00:00,
2013-03-04 04:05:00,27.7,18.9,29.61,WSW,244,6.0,8.0,69,0.00,,,0.00,0,WeatherCatV1.14B232,2013-03-04 09:05:00,
2013-03-04 04:10:00,27.7,18.9,29.61,WNW,291,6.0,8.0,69,0.00,,,0.00,0,WeatherCatV1.14B232,2013-03-04 09:10:00,
2013-03-04 04:15:00,27.7,18.9,29.61,WNW,295,4.0,9.0,69,0.00,,,0.00,0,WeatherCatV1.14B232,2013-03-04 09:15:00,
2013-03-04 04:20:00,27.8,19.3,29.61,WNW,296,8.0,8.0,70,0.00,,,0.00,0,WeatherCatV1.14B232,2013-03-04 09:20:00,
2013-03-04 04:25:00,27.8,19.3,29.61,WNW,290,5.0,9.0,70,0.00,,,0.00,0,WeatherCatV1.14B232,2013-03-04 09:25:00,
2013-03-04 04:30:00,27.8,19.3,29.61,WNW,294,4.0,8.0,70,0.00,,,0.00,0,WeatherCatV1.14B232,2013-03-04 09:30:00,
2013-03-04 04:35:00,27.9,19.4,29.61,NW,314,6.0,7.0,70,0.00,,,0.00,0,WeatherCatV1.14B232,2013-03-04 09:35:00,
2013-03-04 04:40:00,27.9,19.4,29.61,WNW,286,3.0,7.0,70,0.00,,,0.00,0,WeatherCatV1.14B232,2013-03-04 09:40:00,
2013-03-04 04:45:00,27.9,19.7,29.61,NNW,333,4.0,7.0,71,0.00,,,0.00,0,WeatherCatV1.14B232,2013-03-04 09:45:00,
2013-03-04 04:50:00,28.0,19.8,29.61,WNW,296,7.0,14.0,71,0.00,,,0.00,0,WeatherCatV1.14B232,2013-03-04 09:50:00,
2013-03-04 04:55:00,28.0,19.8,29.61,West,271,3.0,6.0,71,0.00,,,0.00,0,WeatherCatV1.14B232,2013-03-04 09:55:00,
2013-03-04 05:00:00,28.1,19.9,29.61,WNW,293,3.0,6.0,71,0.00,,,0.00,0,WeatherCatV1.14B232,2013-03-04 10:00:00,
2013-03-04 05:05:00,28.2,20.0,29.61,WNW,298,6.0,9.0,71,0.00,,,0.00,0,WeatherCatV1.14B232,2013-03-04 10:05:00,
2013-03-04 05:10:00,28.3,20.1,29.61,West,259,3.0,7.0,71,0.00,,,0.00,0,WeatherCatV1.14B232,2013-03-04 10:10:00,
2013-03-04 05:15:00,28.3,20.5,29.61,WNW,300,4.0,7.0,72,0.00,,,0.00,0,WeatherCatV1.14B232,2013-03-04 10:15:00,
2013-03-04 05:20:00,28.4,20.2,29.61,NW,319,7.0,10.0,71,0.00,,,0.00,0,WeatherCatV1.14B232,2013-03-04 10:20:00,
2013-03-04 05:25:00,28.5,20.3,29.61,WNW,296,4.0,8.0,71,0.00,,,0.00,0,WeatherCatV1.14B232,2013-03-04 10:25:00,
2013-03-04 05:30:00,28.5,20.3,29.61,WNW,293,4.0,5.0,71,0.00,,,0.00,0,WeatherCatV1.14B232,2013-03-04 10:30:00,
2013-03-04 05:35:00,28.6,20.4,29.62,NW,313,2.0,9.0,71,0.00,,,0.00,0,WeatherCatV1.14B232,2013-03-04 10:35:00,
2013-03-04 05:40:00,28.6,20.4,29.62,NW,307,1.0,6.0,71,0.00,,,0.00,0,WeatherCatV1.14B232,2013-03-04 10:40:00,
2013-03-04 05:45:00,28.6,20.4,29.62,WNW,294,5.0,10.0,71,0.00,,,0.00,0,WeatherCatV1.14B232,2013-03-04 10:45:00,
2013-03-04 05:50:00,28.7,20.5,29.62,WNW,297,5.0,7.0,71,0.00,,,0.00,0,WeatherCatV1.14B232,2013-03-04 10:50:00,
2013-03-04 05:55:00,28.7,20.5,29.61,WNW,302,2.0,6.0,71,0.00,,,0.00,0,WeatherCatV1.14B232,2013-03-04 10:55:00,
2013-03-04 06:00:00,28.8,20.9,29.62,West,276,4.0,7.0,72,0.00,,,0.00,0,WeatherCatV1.14B232,2013-03-04 11:00:00,
2013-03-04 06:05:00,28.8,20.9,29.62,SW,227,4.0,10.0,72,0.00,,,0.00,0,WeatherCatV1.14B232,2013-03-04 11:05:00,
2013-03-04 06:10:00,28.8,20.6,29.62,WSW,250,5.0,8.0,71,0.00,,,0.00,0,WeatherCatV1.14B232,2013-03-04 11:10:00,
2013-03-04 06:15:00,28.8,20.6,29.62,West,269,3.0,5.0,71,0.00,,,0.00,0,WeatherCatV1.14B232,2013-03-04 11:15:00,
2013-03-04 06:20:00,28.9,21.0,29.62,West,281,4.0,7.0,72,0.00,,,0.00,0,WeatherCatV1.14B232,2013-03-04 11:20:00,
2013-03-04 06:25:00,28.9,21.0,29.62,WNW,303,4.0,9.0,72,0.00,,,0.00,0,WeatherCatV1.14B232,2013-03-04 11:25:00,
2013-03-04 06:30:00,28.9,21.0,29.63,West,279,6.0,12.0,72,0.00,,,0.00,5,WeatherCatV1.14B232,2013-03-04 11:30:00,
2013-03-04 06:35:00,28.9,21.0,29.63,WNW,293,8.0,9.0,72,0.00,,,0.00,9,WeatherCatV1.14B232,2013-03-04 11:35:00,
2013-03-04 06:40:00,29.0,21.1,29.63,WSW,244,5.0,7.0,72,0.00,,,0.00,12,WeatherCatV1.14B232,2013-03-04 11:40:00,
2013-03-04 06:45:00,29.0,21.1,29.63,WNW,291,3.0,6.0,72,0.00,,,0.00,16,WeatherCatV1.14B232,2013-03-04 11:45:00,
2013-03-04 06:50:00,29.0,21.1,29.63,WNW,291,6.0,8.0,72,0.00,,,0.00,18,WeatherCatV1.14B232,2013-03-04 11:50:00,
2013-03-04 06:55:00,29.1,20.9,29.64,West,277,6.0,9.0,71,0.00,,,0.00,19,WeatherCatV1.14B232,2013-03-04 11:55:00,
2013-03-04 07:00:00,29.1,20.9,29.64,NW,317,2.0,8.0,71,0.00,,,0.00,21,WeatherCatV1.14B232,2013-03-04 12:00:00,
2013-03-04 07:05:00,29.1,20.9,29.64,WNW,286,2.0,5.0,71,0.00,,,0.00,25,WeatherCatV1.14B232,2013-03-04 12:05:00,
2013-03-04 07:10:00,29.2,21.0,29.64,WNW,301,0.0,5.0,71,0.00,,,0.00,32,WeatherCatV1.14B232,2013-03-04 12:10:00,
2013-03-04 07:15:00,29.3,21.1,29.64,NW,317,2.0,7.0,71,0.00,,,0.00,37,WeatherCatV1.14B232,2013-03-04 12:15:00,
2013-03-04 07:20:00,29.4,21.2,29.64,WNW,283,4.0,7.0,71,0.00,,,0.00,40,WeatherCatV1.14B232,2013-03-04 12:20:00,
2013-03-04 07:25:00,29.4,20.8,29.64,WNW,296,1.0,10.0,70,0.00,,,0.00,37,WeatherCatV1.14B232,2013-03-04 12:25:00,
2013-03-04 07:30:00,29.4,21.2,29.64,WNW,290,8.0,8.0,71,0.00,,,0.00,33,WeatherCatV1.14B232,2013-03-04 12:30:00,
2013-03-04 07:35:00,29.4,20.8,29.64,NNW,331,10.0,11.0,70,0.00,,,0.00,28,WeatherCatV1.14B232,2013-03-04 12:35:00,
2013-03-04 07:40:00,29.5,20.9,29.64,WNW,282,6.0,9.0,70,0.00,,,0.00,33,WeatherCatV1.14B232,2013-03-04 12:40:00,
2013-03-04 07:45:00,29.6,21.0,29.64,West,263,4.0,11.0,70,0.00,,,0.00,32,WeatherCatV1.14B232,2013-03-04 12:45:00,
2013-03-04 07:50:00,29.6,21.0,29.64,West,260,4.0,8.0,70,0.00,,,0.00,35,WeatherCatV1.14B232,2013-03-04 12:50:00,
2013-03-04 07:55:00,29.9,21.7,29.64,WNW,290,2.0,6.0,71,0.00,,,0.00,113,WeatherCatV1.14B232,2013-03-04 12:55:00,
2013-03-04 08:00:00,30.3,21.7,29.64,WNW,301,4.0,7.0,70,0.00,,,0.00,53,WeatherCatV1.14B232,2013-03-04 13:00:00,
2013-03-04 08:05:00,30.4,21.8,29.64,WNW,294,3.0,6.0,70,0.00,,,0.00,153,WeatherCatV1.14B232,2013-03-04 13:05:00,
2013-03-04 08:10:00,30.7,21.8,29.64,WNW,298,5.0,9.0,69,0.00,,,0.00,176,WeatherCatV1.14B232,2013-03-04 13:10:00,
2013-03-04 08:15:00,30.8,21.9,29.64,WNW,298,4.0,9.0,69,0.00,,,0.00,167,WeatherCatV1.14B232,2013-03-04 13:15:00,
2013-03-04 08:20:00,31.1,21.8,29.64,WNW,293,5.0,11.0,68,0.00,,,0.00,234,WeatherCatV1.14B232,2013-03-04 13:20:00,
2013-03-04 08:25:00,31.1,21.4,29.64,NW,304,9.0,11.0,67,0.00,,,0.00,264,WeatherCatV1.14B232,2013-03-04 13:25:00,
2013-03-04 08:30:00,31.3,22.0,29.64,WNW,289,4.0,7.0,68,0.00,,,0.00,190,WeatherCatV1.14B232,2013-03-04 13:30:00,
2013-03-04 08:35:00,31.6,22.3,29.64,NW,319,8.0,11.0,68,0.00,,,0.00,250,WeatherCatV1.14B232,2013-03-04 13:35:00,
2013-03-04 08:40:00,31.6,21.9,29.64,WNW,293,7.0,13.0,67,0.00,,,0.00,220,WeatherCatV1.14B232,2013-03-04 13:40:00,
2013-03-04 08:45:00,31.9,22.2,29.64,NW,317,3.0,8.0,67,0.00,,,0.00,297,WeatherCatV1.14B232,2013-03-04 13:45:00,
2013-03-04 08:50:00,32.5,22.8,29.63,WNW,293,8.0,9.0,67,0.00,,,0.00,373,WeatherCatV1.14B232,2013-03-04 13:50:00,
2013-03-04 08:55:00,32.6,22.5,29.63,WNW,291,3.0,8.0,66,0.00,,,0.00,329,WeatherCatV1.14B232,2013-03-04 13:55:00,
2013-03-04 09:00:00,32.6,22.2,29.63,West,269,6.0,9.0,65,0.00,,,0.00,390,WeatherCatV1.14B232,2013-03-04 14:00:00,
2013-03-04 09:05:00,32.7,22.3,29.63,NW,313,5.0,9.0,65,0.00,,,0.00,262,WeatherCatV1.14B232,2013-03-04 14:05:00,
2013-03-04 09:10:00,33.1,22.6,29.63,NW,314,8.0,9.0,65,0.00,,,0.00,422,WeatherCatV1.14B232,2013-03-04 14:10:00,
2013-03-04 09:15:00,32.9,21.7,29.63,WSW,252,8.0,9.0,63,0.00,,,0.00,452,WeatherCatV1.14B232,2013-03-04 14:15:00,
2013-03-04 09:20:00,33.2,21.6,29.63,NW,305,11.0,11.0,62,0.00,,,0.00,404,WeatherCatV1.14B232,2013-03-04 14:20:00,
2013-03-04 09:25:00,33.1,21.5,29.63,WNW,294,4.0,10.0,62,0.00,,,0.00,452,WeatherCatV1.14B232,2013-03-04 14:25:00,
2013-03-04 09:30:00,33.6,21.6,29.64,NW,304,9.0,11.0,61,0.00,,,0.00,508,WeatherCatV1.14B232,2013-03-04 14:30:00,
2013-03-04 09:35:00,33.7,21.3,29.64,West,279,6.0,12.0,60,0.00,,,0.00,527,WeatherCatV1.14B232,2013-03-04 14:35:00,
2013-03-04 09:40:00,33.7,21.7,29.64,West,269,8.0,12.0,61,0.00,,,0.00,538,WeatherCatV1.14B232,2013-03-04 14:40:00,
2013-03-04 09:45:00,33.6,21.6,29.64,WSW,258,4.0,13.0,61,0.00,,,0.00,504,WeatherCatV1.14B232,2013-03-04 14:45:00,
2013-03-04 09:50:00,34.2,22.2,29.64,WNW,284,4.0,7.0,61,0.00,,,0.00,332,WeatherCatV1.14B232,2013-03-04 14:50:00,
2013-03-04 09:55:00,34.7,22.3,29.64,West,275,7.0,9.0,60,0.00,,,0.00,288,WeatherCatV1.14B232,2013-03-04 14:55:00,
2013-03-04 10:00:00,35.2,21.9,29.64,NW,306,4.0,11.0,58,0.00,,,0.00,446,WeatherCatV1.14B232,2013-03-04 15:00:00,
2013-03-04 10:05:00,35.3,22.0,29.64,WNW,294,8.0,9.0,58,0.00,,,0.00,599,WeatherCatV1.14B232,2013-03-04 15:05:00,
2013-03-04 10:10:00,35.6,21.9,29.64,NW,319,9.0,10.0,57,0.00,,,0.00,608,WeatherCatV1.14B232,2013-03-04 15:10:00,
2013-03-04 10:15:00,35.1,21.8,29.63,NW,319,6.0,10.0,58,0.00,,,0.00,617,WeatherCatV1.14B232,2013-03-04 15:15:00,
2013-03-04 10:20:00,35.8,22.1,29.63,WNW,283,5.0,9.0,57,0.00,,,0.00,629,WeatherCatV1.14B232,2013-03-04 15:20:00,
2013-03-04 10:25:00,35.8,22.1,29.63,SW,235,6.0,13.0,57,0.00,,,0.00,645,WeatherCatV1.14B232,2013-03-04 15:25:00,
2013-03-04 10:30:00,35.8,21.7,29.63,WNW,287,6.0,10.0,56,0.00,,,0.00,687,WeatherCatV1.14B232,2013-03-04 15:30:00,
2013-03-04 10:35:00,36.0,22.3,29.63,WSW,257,8.0,10.0,57,0.00,,,0.00,657,WeatherCatV1.14B232,2013-03-04 15:35:00,
2013-03-04 10:40:00,35.5,22.2,29.63,WNW,286,7.0,9.0,58,0.00,,,0.00,670,WeatherCatV1.14B232,2013-03-04 15:40:00,
2013-03-04 10:45:00,36.1,22.4,29.63,West,275,5.0,8.0,57,0.00,,,0.00,677,WeatherCatV1.14B232,2013-03-04 15:45:00,
2013-03-04 10:50:00,37.0,22.8,29.63,West,271,5.0,8.0,56,0.00,,,0.00,677,WeatherCatV1.14B232,2013-03-04 15:50:00,
2013-03-04 10:55:00,36.4,22.2,29.63,West,265,5.0,10.0,56,0.00,,,0.00,687,WeatherCatV1.14B232,2013-03-04 15:55:00,
2013-03-04 11:00:00,36.8,22.2,29.63,WNW,292,6.0,10.0,55,0.00,,,0.00,693,WeatherCatV1.14B232,2013-03-04 16:00:00,
2013-03-04 11:05:00,36.7,22.5,29.64,West,271,2.0,10.0,56,0.00,,,0.00,745,WeatherCatV1.14B232,2013-03-04 16:05:00,
2013-03-04 11:10:00,35.7,22.0,29.63,West,261,2.0,6.0,57,0.00,,,0.00,745,WeatherCatV1.14B232,2013-03-04 16:10:00,
2013-03-04 11:15:00,37.0,22.8,29.63,NW,309,3.0,12.0,56,0.00,,,0.00,712,WeatherCatV1.14B232,2013-03-04 16:15:00,
2013-03-04 11:20:00,37.3,22.6,29.63,WNW,286,9.0,11.0,55,0.00,,,0.00,710,WeatherCatV1.14B232,2013-03-04 16:20:00,
2013-03-04 11:25:00,37.2,23.0,29.63,WNW,300,7.0,11.0,56,0.00,,,0.00,715,WeatherCatV1.14B232,2013-03-04 16:25:00,
2013-03-04 11:30:00,37.4,22.7,29.63,WNW,294,5.0,9.0,55,0.00,,,0.00,719,WeatherCatV1.14B232,2013-03-04 16:30:00,
2013-03-04 11:35:00,37.7,22.1,29.63,West,261,9.0,12.0,53,0.00,,,0.00,726,WeatherCatV1.14B232,2013-03-04 16:35:00,
2013-03-04 11:40:00,38.3,22.7,29.63,WSW,250,6.0,9.0,53,0.00,,,0.00,729,WeatherCatV1.14B232,2013-03-04 16:40:00,
2013-03-04 11:45:00,38.2,22.6,29.62,WNW,282,12.0,12.0,53,0.00,,,0.00,731,WeatherCatV1.14B232,2013-03-04 16:45:00,
2013-03-04 11:50:00,38.0,22.4,29.63,NW,310,5.0,17.0,53,0.00,,,0.00,731,WeatherCatV1.14B232,2013-03-04 16:50:00,
2013-03-04 11:55:00,38.7,23.1,29.62,NW,305,11.0,14.0,53,0.00,,,0.00,735,WeatherCatV1.14B232,2013-03-04 16:55:00,
2013-03-04 12:00:00,38.5,22.9,29.62,West,270,5.0,8.0,53,0.00,,,0.00,738,WeatherCatV1.14B232,2013-03-04 17:00:00,
2013-03-04 12:05:00,39.1,22.5,29.62,WSW,253,7.0,11.0,51,0.00,,,0.00,738,WeatherCatV1.14B232,2013-03-04 17:05:00,
2013-03-04 12:10:00,39.0,22.4,29.62,West,275,6.0,14.0,51,0.00,,,0.00,738,WeatherCatV1.14B232,2013-03-04 17:10:00,
2013-03-04 12:15:00,38.6,22.5,29.61,WNW,300,4.0,10.0,52,0.00,,,0.00,777,WeatherCatV1.14B232,2013-03-04 17:15:00,
2013-03-04 12:20:00,38.7,22.6,29.62,WNW,296,8.0,10.0,52,0.00,,,0.00,758,WeatherCatV1.14B232,2013-03-04 17:20:00,
2013-03-04 12:25:00,39.1,23.0,29.61,WSW,244,5.0,9.0,52,0.00,,,0.00,700,WeatherCatV1.14B232,2013-03-04 17:25:00,
2013-03-04 12:30:00,39.3,23.2,29.61,West,259,5.0,9.0,52,0.00,,,0.00,768,WeatherCatV1.14B232,2013-03-04 17:30:00,
2013-03-04 12:35:00,39.5,22.9,29.61,WNW,283,9.0,11.0,51,0.00,,,0.00,754,WeatherCatV1.14B232,2013-03-04 17:35:00,
2013-03-04 12:40:00,39.5,22.4,29.61,NW,304,11.0,14.0,50,0.00,,,0.00,745,WeatherCatV1.14B232,2013-03-04 17:40:00,
2013-03-04 12:45:00,40.0,23.3,29.61,West,264,8.0,17.0,51,0.00,,,0.00,768,WeatherCatV1.14B232,2013-03-04 17:45:00,
2013-03-04 12:50:00,40.6,23.0,29.61,WNW,298,5.0,12.0,49,0.00,,,0.00,817,WeatherCatV1.14B232,2013-03-04 17:50:00,
2013-03-04 12:55:00,41.0,22.8,29.61,West,259,4.0,12.0,48,0.00,,,0.00,911,WeatherCatV1.14B232,2013-03-04 17:55:00,
2013-03-04 13:00:00,40.4,22.8,29.61,WSW,257,6.0,11.0,49,0.00,,,0.00,631,WeatherCatV1.14B232,2013-03-04 18:00:00,
2013-03-04 13:05:00,40.6,23.4,29.60,WNW,295,4.0,7.0,50,0.00,,,0.00,798,WeatherCatV1.14B232,2013-03-04 18:05:00,
2013-03-04 13:10:00,40.7,23.0,29.60,NNW,343,5.0,14.0,49,0.00,,,0.00,717,WeatherCatV1.14B232,2013-03-04 18:10:00,
2013-03-04 13:15:00,41.2,24.0,29.60,West,262,4.0,7.0,50,0.00,,,0.00,714,WeatherCatV1.14B232,2013-03-04 18:15:00,
2013-03-04 13:20:00,41.3,23.1,29.60,WNW,291,6.0,9.0,48,0.00,,,0.00,703,WeatherCatV1.14B232,2013-03-04 18:20:00,
2013-03-04 13:25:00,41.1,23.9,29.60,West,279,4.0,6.0,50,0.00,,,0.00,693,WeatherCatV1.14B232,2013-03-04 18:25:00,
2013-03-04 13:29:00,41.2,23.0,29.60,NW,307,7.0,11.0,48,0.00,,,0.00,703,WeatherCatV1.14B232,2013-03-04 18:29:00,
2013-03-04 13:34:00,40.6,23.0,29.61,WSW,252,10.0,11.0,49,0.00,,,0.00,680,WeatherCatV1.14B232,2013-03-04 18:34:00,
2013-03-04 13:39:00,40.2,23.1,29.60,WNW,292,8.0,11.0,50,0.00,,,0.00,673,WeatherCatV1.14B232,2013-03-04 18:39:00,
2013-03-04 13:44:00,39.7,22.6,29.60,WSW,258,7.0,12.0,50,0.00,,,0.00,663,WeatherCatV1.14B232,2013-03-04 18:44:00,
2013-03-04 13:49:00,39.6,22.5,29.60,WNW,293,7.0,8.0,50,0.00,,,0.00,673,WeatherCatV1.14B232,2013-03-04 18:49:00,
2013-03-04 13:54:00,39.7,22.6,29.60,NW,317,8.0,11.0,50,0.00,,,0.00,657,WeatherCatV1.14B232,2013-03-04 18:54:00,
2013-03-04 13:59:00,39.6,22.5,29.60,West,271,5.0,14.0,50,0.00,,,0.00,610,WeatherCatV1.14B232,2013-03-04 18:59:00,
2013-03-04 14:04:00,39.6,22.0,29.60,WNW,297,11.0,12.0,49,0.00,,,0.00,253,WeatherCatV1.14B232,2013-03-04 19:04:00,
2013-03-04 14:09:00,39.6,23.0,29.60,WNW,290,9.0,9.0,51,0.00,,,0.00,146,WeatherCatV1.14B232,2013-03-04 19:09:00,
2013-03-04 14:14:00,39.5,22.4,29.60,West,259,5.0,11.0,50,0.00,,,0.00,67,WeatherCatV1.14B232,2013-03-04 19:14:00,
2013-03-04 14:19:00,39.4,22.8,29.60,West,271,9.0,11.0,51,0.00,,,0.00,63,WeatherCatV1.14B232,2013-03-04 19:19:00,
2013-03-04 14:24:00,39.2,22.1,29.60,NW,304,8.0,14.0,50,0.00,,,0.00,49,WeatherCatV1.14B232,2013-03-04 19:24:00,
2013-03-04 14:29:00,39.1,22.5,29.60,WNW,290,9.0,11.0,51,0.00,,,0.00,42,WeatherCatV1.14B232,2013-03-04 19:29:00,
2013-03-04 14:34:00,39.1,22.5,29.60,NW,306,4.0,13.0,51,0.00,,,0.00,42,WeatherCatV1.14B232,2013-03-04 19:34:00,
2013-03-04 14:39:00,39.4,23.3,29.60,NNW,335,4.0,10.0,52,0.00,,,0.00,42,WeatherCatV1.14B232,2013-03-04 19:39:00,
2013-03-04 14:44:00,39.7,23.1,29.60,NNW,327,4.0,12.0,51,0.00,,,0.00,42,WeatherCatV1.14B232,2013-03-04 19:44:00,
2013-03-04 14:49:00,39.7,22.6,29.60,WNW,296,5.0,11.0,50,0.00,,,0.00,60,WeatherCatV1.14B232,2013-03-04 19:49:00,
2013-03-04 14:54:00,39.7,22.6,29.60,NNW,329,2.0,9.0,50,0.00,,,0.00,51,WeatherCatV1.14B232,2013-03-04 19:54:00,
2013-03-04 14:59:00,39.8,23.2,29.61,NW,311,4.0,10.0,51,0.00,,,0.00,60,WeatherCatV1.14B232,2013-03-04 19:59:00,
2013-03-04 15:04:00,39.8,22.2,29.61,NNW,328,8.0,16.0,49,0.00,,,0.00,49,WeatherCatV1.14B232,2013-03-04 20:04:00,
2013-03-04 15:09:00,39.8,22.7,29.61,West,277,7.0,7.0,50,0.00,,,0.00,77,WeatherCatV1.14B232,2013-03-04 20:09:00,
2013-03-04 15:14:00,39.5,22.4,29.61,WNW,295,6.0,11.0,50,0.00,,,0.00,186,WeatherCatV1.14B232,2013-03-04 20:14:00,
2013-03-04 15:19:00,39.3,22.7,29.61,WNW,283,9.0,11.0,51,0.00,,,0.00,146,WeatherCatV1.14B232,2013-03-04 20:19:00,
2013-03-04 15:24:00,39.3,22.7,29.60,NW,309,9.0,12.0,51,0.00,,,0.00,63,WeatherCatV1.14B232,2013-03-04 20:24:00,
2013-03-04 15:29:00,39.3,22.7,29.61,WNW,284,4.0,11.0,51,0.00,,,0.00,98,WeatherCatV1.14B232,2013-03-04 20:29:00,
2013-03-04 15:34:00,39.0,22.0,29.60,West,262,13.0,17.0,50,0.00,,,0.00,104,WeatherCatV1.14B232,2013-03-04 20:34:00,
2013-03-04 15:39:00,38.9,21.9,29.60,WNW,293,17.0,18.0,50,0.00,,,0.00,44,WeatherCatV1.14B232,2013-03-04 20:39:00,
2013-03-04 15:44:00,38.8,22.7,29.61,SW,236,5.0,12.0,52,0.00,,,0.00,33,WeatherCatV1.14B232,2013-03-04 20:44:00,
2013-03-04 15:49:00,38.8,22.2,29.61,NW,308,8.0,14.0,51,0.00,,,0.00,35,WeatherCatV1.14B232,2013-03-04 20:49:00,
2013-03-04 15:54:00,38.9,22.8,29.61,NNW,348,6.0,13.0,52,0.00,,,0.00,37,WeatherCatV1.14B232,2013-03-04 20:54:00,
2013-03-04 15:59:00,38.7,22.6,29.61,NNW,348,3.0,12.0,52,0.00,,,0.00,40,WeatherCatV1.14B232,2013-03-04 20:59:00,
2013-03-04 16:04:00,38.5,22.4,29.61,West,267,4.0,9.0,52,0.00,,,0.00,67,WeatherCatV1.14B232,2013-03-04 21:04:00,
2013-03-04 16:09:00,38.4,22.8,29.61,WNW,288,8.0,13.0,53,0.00,,,0.00,30,WeatherCatV1.14B232,2013-03-04 21:09:00,
2013-03-04 16:14:00,38.5,22.4,29.61,WNW,302,6.0,12.0,52,0.00,,,0.00,39,WeatherCatV1.14B232,2013-03-04 21:14:00,
2013-03-04 16:19:00,38.4,22.3,29.62,NW,312,6.0,13.0,52,0.00,,,0.00,40,WeatherCatV1.14B232,2013-03-04 21:19:00,
2013-03-04 16:24:00,38.1,22.0,29.62,WSW,257,7.0,12.0,52,0.00,,,0.00,116,WeatherCatV1.14B232,2013-03-04 21:24:00,
2013-03-04 16:29:00,37.8,22.2,29.62,NNW,327,5.0,13.0,53,0.00,,,0.00,44,WeatherCatV1.14B232,2013-03-04 21:29:00,
2013-03-04 16:34:00,37.7,22.6,29.62,West,265,8.0,12.0,54,0.00,,,0.00,35,WeatherCatV1.14B232,2013-03-04 21:34:00,
2013-03-04 16:39:00,37.5,22.4,29.62,WNW,293,15.0,15.0,54,0.00,,,0.00,26,WeatherCatV1.14B232,2013-03-04 21:39:00,
2013-03-04 16:44:00,37.4,22.3,29.62,WSW,250,9.0,16.0,54,0.00,,,0.00,25,WeatherCatV1.14B232,2013-03-04 21:44:00,
2013-03-04 16:49:00,37.3,21.8,29.62,WNW,282,5.0,19.0,53,0.00,,,0.00,30,WeatherCatV1.14B232,2013-03-04 21:49:00,
2013-03-04 16:54:00,37.1,22.0,29.62,WNW,302,4.0,16.0,54,0.00,,,0.00,26,WeatherCatV1.14B232,2013-03-04 21:54:00,
2013-03-04 16:59:00,37.1,22.4,29.63,NW,306,6.0,8.0,55,0.00,,,0.00,25,WeatherCatV1.14B232,2013-03-04 21:59:00,
2013-03-04 17:04:00,37.0,21.9,29.63,WNW,294,8.0,16.0,54,0.00,,,0.00,21,WeatherCatV1.14B232,2013-03-04 22:04:00,
2013-03-04 17:09:00,36.9,21.8,29.63,West,269,14.0,18.0,54,0.00,,,0.00,19,WeatherCatV1.14B232,2013-03-04 22:09:00,
2013-03-04 17:14:00,36.7,22.5,29.64,WNW,289,13.0,15.0,56,0.00,,,0.00,18,WeatherCatV1.14B232,2013-03-04 22:14:00,
2013-03-04 17:19:00,36.6,21.5,29.64,WNW,286,10.0,17.0,54,0.00,,,0.00,21,WeatherCatV1.14B232,2013-03-04 22:19:00,
2013-03-04 17:24:00,36.5,21.9,29.64,WNW,294,10.0,14.0,55,0.00,,,0.00,14,WeatherCatV1.14B232,2013-03-04 22:24:00,
2013-03-04 17:29:00,36.4,21.8,29.64,West,276,5.0,11.0,55,0.00,,,0.00,12,WeatherCatV1.14B232,2013-03-04 22:29:00,
2013-03-04 17:34:00,36.2,22.0,29.65,WNW,288,6.0,7.0,56,0.00,,,0.00,9,WeatherCatV1.14B232,2013-03-04 22:34:00,
2013-03-04 17:39:00,36.1,22.4,29.65,WNW,294,4.0,9.0,57,0.00,,,0.00,7,WeatherCatV1.14B232,2013-03-04 22:39:00,
2013-03-04 17:44:00,36.0,22.3,29.65,West,265,3.0,10.0,57,0.00,,,0.00,5,WeatherCatV1.14B232,2013-03-04 22:44:00,
2013-03-04 17:49:00,35.9,22.2,29.66,WNW,290,7.0,10.0,57,0.00,,,0.00,0,WeatherCatV1.14B232,2013-03-04 22:49:00,
2013-03-04 17:54:00,35.7,22.0,29.66,WNW,298,3.0,15.0,57,0.00,,,0.00,0,WeatherCatV1.14B232,2013-03-04 22:54:00,
2013-03-04 17:59:00,35.6,21.9,29.66,NW,319,5.0,13.0,57,0.00,,,0.00,0,WeatherCatV1.14B232,2013-03-04 22:59:00,
2013-03-04 18:04:00,35.5,22.2,29.66,West,273,3.0,11.0,58,0.00,,,0.00,0,WeatherCatV1.14B232,2013-03-04 23:04:00,
2013-03-04 18:09:00,35.5,21.8,29.66,WNW,299,8.0,12.0,57,0.00,,,0.00,0,WeatherCatV1.14B232,2013-03-04 23:09:00,
2013-03-04 18:14:00,35.4,21.7,29.67,WNW,284,10.0,11.0,57,0.00,,,0.00,0,WeatherCatV1.14B232,2013-03-04 23:14:00,
2013-03-04 18:19:00,35.4,22.1,29.67,NW,325,9.0,14.0,58,0.00,,,0.00,0,WeatherCatV1.14B232,2013-03-04 23:19:00,
2013-03-04 18:24:00,35.3,22.0,29.67,NW,312,9.0,11.0,58,0.00,,,0.00,0,WeatherCatV1.14B232,2013-03-04 23:24:00,
2013-03-04 18:29:00,35.2,21.9,29.67,WNW,297,11.0,15.0,58,0.00,,,0.00,0,WeatherCatV1.14B232,2013-03-04 23:29:00,
2013-03-04 18:34:00,35.0,21.7,29.67,NW,313,10.0,13.0,58,0.00,,,0.00,0,WeatherCatV1.14B232,2013-03-04 23:34:00,
2013-03-04 18:39:00,34.9,22.0,29.67,WNW,300,4.0,9.0,59,0.00,,,0.00,0,WeatherCatV1.14B232,2013-03-04 23:39:00,
2013-03-04 18:44:00,34.8,22.0,29.67,WNW,301,10.0,11.0,59,0.00,,,0.00,0,WeatherCatV1.14B232,2013-03-04 23:44:00,
2013-03-04 18:49:00,34.7,21.9,29.68,NW,321,11.0,22.0,59,0.00,,,0.00,0,WeatherCatV1.14B232,2013-03-04 23:49:00,
2013-03-04 18:54:00,34.7,21.9,29.68,West,279,6.0,14.0,59,0.00,,,0.00,0,WeatherCatV1.14B232,2013-03-04 23:54:00,
2013-03-04 19:00:00,34.6,22.2,29.68,WNW,284,3.0,11.0,60,0.00,,,0.00,0,WeatherCatV1.14B232,2013-03-05 00:00:00,
2013-03-04 19:05:00,34.5,22.1,29.68,NW,304,4.0,8.0,60,0.00,,,0.00,0,WeatherCatV1.14B232,2013-03-05 00:05:00,
2013-03-04 19:10:00,34.4,22.0,29.68,WNW,289,7.0,11.0,60,0.00,,,0.00,0,WeatherCatV1.14B232,2013-03-05 00:10:00,
2013-03-04 19:15:00,34.4,22.4,29.68,NW,312,7.0,12.0,61,0.00,,,0.00,0,WeatherCatV1.14B232,2013-03-05 00:15:00,
2013-03-04 19:20:00,34.3,22.3,29.69,WNW,298,8.0,8.0,61,0.00,,,0.00,0,WeatherCatV1.14B232,2013-03-05 00:20:00,
2013-03-04 19:25:00,34.2,22.2,29.69,WNW,283,9.0,13.0,61,0.00,,,0.00,0,WeatherCatV1.14B232,2013-03-05 00:25:00,
2013-03-04 19:30:00,34.1,22.1,29.69,WNW,294,4.0,13.0,61,0.00,,,0.00,0,WeatherCatV1.14B232,2013-03-05 00:30:00,
2013-03-04 19:35:00,34.1,22.1,29.69,NW,305,5.0,11.0,61,0.00,,,0.00,0,WeatherCatV1.14B232,2013-03-05 00:35:00,
2013-03-04 19:40:00,34.0,22.0,29.69,NW,316,8.0,10.0,61,0.00,,,0.00,0,WeatherCatV1.14B232,2013-03-05 00:40:00,
2013-03-04 19:45:00,33.9,21.9,29.69,WNW,299,8.0,13.0,61,0.00,,,0.00,0,WeatherCatV1.14B232,2013-03-05 00:45:00,
2013-03-04 19:50:00,33.9,21.9,29.69,WNW,289,7.0,17.0,61,0.00,,,0.00,0,WeatherCatV1.14B232,2013-03-05 00:50:00,
2013-03-04 19:55:00,33.9,22.3,29.69,NNW,338,16.0,16.0,62,0.00,,,0.00,0,WeatherCatV1.14B232,2013-03-05 00:55:00,
2013-03-04 20:00:00,33.8,22.2,29.69,WSW,258,3.0,9.0,62,0.00,,,0.00,0,WeatherCatV1.14B232,2013-03-05 01:00:00,
2013-03-04 20:05:00,33.7,22.1,29.70,West,261,4.0,7.0,62,0.00,,,0.00,0,WeatherCatV1.14B232,2013-03-05 01:05:00,
2013-03-04 20:10:00,33.6,22.0,29.70,WNW,289,7.0,9.0,62,0.00,,,0.00,0,WeatherCatV1.14B232,2013-03-05 01:10:00,
2013-03-04 20:15:00,33.6,22.4,29.69,NW,307,5.0,8.0,63,0.00,,,0.00,0,WeatherCatV1.14B232,2013-03-05 01:15:00,
2013-03-04 20:20:00,33.5,22.3,29.70,West,277,7.0,9.0,63,0.00,,,0.00,0,WeatherCatV1.14B232,2013-03-05 01:20:00,
2013-03-04 20:25:00,33.4,22.2,29.69,WNW,285,9.0,12.0,63,0.00,,,0.00,0,WeatherCatV1.14B232,2013-03-05 01:25:00,
2013-03-04 20:30:00,33.5,22.3,29.70,NW,304,9.0,10.0,63,0.00,,,0.00,0,WeatherCatV1.14B232,2013-03-05 01:30:00,
2013-03-04 20:35:00,33.4,22.2,29.70,NW,314,7.0,10.0,63,0.00,,,0.00,0,WeatherCatV1.14B232,2013-03-05 01:35:00,
2013-03-04 20:40:00,33.4,22.2,29.70,NW,320,3.0,10.0,63,0.00,,,0.00,0,WeatherCatV1.14B232,2013-03-05 01:40:00,
2013-03-04 20:45:00,33.3,22.5,29.71,WNW,290,8.0,11.0,64,0.00,,,0.00,0,WeatherCatV1.14B232,2013-03-05 01:45:00,
2013-03-04 20:50:00,33.3,22.5,29.71,West,261,2.0,9.0,64,0.00,,,0.00,0,WeatherCatV1.14B232,2013-03-05 01:50:00,
2013-03-04 20:55:00,33.2,22.4,29.71,WNW,289,6.0,8.0,64,0.00,,,0.00,0,WeatherCatV1.14B232,2013-03-05 01:55:00,
2013-03-04 21:00:00,33.2,22.4,29.71,NW,315,5.0,13.0,64,0.00,,,0.00,0,WeatherCatV1.14B232,2013-03-05 02:00:00,
2013-03-04 21:05:00,33.2,22.0,29.71,NNW,340,7.0,12.0,63,0.00,,,0.00,0,WeatherCatV1.14B232,2013-03-05 02:05:00,
2013-03-04 21:10:00,33.1,22.3,29.72,WNW,302,9.0,10.0,64,0.00,,,0.00,0,WeatherCatV1.14B232,2013-03-05 02:10:00,
2013-03-04 21:15:00,33.1,21.9,29.72,NW,305,9.0,13.0,63,0.00,,,0.00,0,WeatherCatV1.14B232,2013-03-05 02:15:00,
2013-03-04 21:20:00,33.0,21.8,29.72,NW,317,8.0,9.0,63,0.00,,,0.00,0,WeatherCatV1.14B232,2013-03-05 02:20:00,
2013-03-04 21:25:00,32.9,21.7,29.72,NW,305,12.0,12.0,63,0.00,,,0.00,0,WeatherCatV1.14B232,2013-03-05 02:25:00,
2013-03-04 21:30:00,32.9,22.1,29.72,NW,311,5.0,5.0,64,0.00,,,0.00,0,WeatherCatV1.14B232,2013-03-05 02:30:00,
2013-03-04 21:35:00,32.7,21.9,29.72,WNW,298,4.0,6.0,64,0.00,,,0.00,0,WeatherCatV1.14B232,2013-03-05 02:35:00,
2013-03-04 21:40:00,32.6,21.8,29.72,West,281,7.0,12.0,64,0.00,,,0.00,0,WeatherCatV1.14B232,2013-03-05 02:40:00,
2013-03-04 21:45:00,32.6,21.4,29.73,WNW,298,7.0,13.0,63,0.00,,,0.00,0,WeatherCatV1.14B232,2013-03-05 02:45:00,
2013-03-04 21:50:00,32.6,21.4,29.73,NW,319,5.0,13.0,63,0.00,,,0.00,0,WeatherCatV1.14B232,2013-03-05 02:50:00,
2013-03-04 21:55:00,32.5,21.3,29.73,WSW,246,3.0,11.0,63,0.00,,,0.00,0,WeatherCatV1.14B232,2013-03-05 02:55:00,
2013-03-04 22:00:00,32.5,21.7,29.73,NNW,331,3.0,11.0,64,0.00,,,0.00,0,WeatherCatV1.14B232,2013-03-05 03:00:00,
2013-03-04 22:05:00,32.4,21.6,29.73,WNW,289,10.0,13.0,64,0.00,,,0.00,0,WeatherCatV1.14B232,2013-03-05 03:05:00,
2013-03-04 22:10:00,32.4,21.6,29.73,North,355,7.0,11.0,64,0.00,,,0.00,0,WeatherCatV1.14B232,2013-03-05 03:10:00,
2013-03-04 22:15:00,32.3,21.5,29.73,WNW,286,4.0,9.0,64,0.00,,,0.00,0,WeatherCatV1.14B232,2013-03-05 03:15:00,
2013-03-04 22:20:00,32.2,21.4,29.73,WNW,292,9.0,11.0,64,0.00,,,0.00,0,WeatherCatV1.14B232,2013-03-05 03:20:00,
2013-03-04 22:25:00,32.3,21.5,29.73,NW,307,4.0,13.0,64,0.00,,,0.00,0,WeatherCatV1.14B232,2013-03-05 03:25:00,
2013-03-04 22:30:00,32.2,21.8,29.73,NW,319,6.0,7.0,65,0.00,,,0.00,0,WeatherCatV1.14B232,2013-03-05 03:30:00,
2013-03-04 22:35:00,32.1,21.7,29.74,WNW,284,5.0,8.0,65,0.00,,,0.00,0,WeatherCatV1.14B232,2013-03-05 03:35:00,
2013-03-04 22:40:00,32.1,21.7,29.74,WNW,292,4.0,10.0,65,0.00,,,0.00,0,WeatherCatV1.14B232,2013-03-05 03:40:00,
2013-03-04 22:45:00,32.1,21.3,29.74,NW,308,10.0,14.0,64,0.00,,,0.00,0,WeatherCatV1.14B232,2013-03-05 03:45:00,
2013-03-04 22:50:00,32.2,21.4,29.73,WNW,290,10.0,10.0,64,0.00,,,0.00,0,WeatherCatV1.14B232,2013-03-05 03:50:00,
2013-03-04 22:55:00,32.2,21.4,29.73,WNW,291,7.0,13.0,64,0.00,,,0.00,0,WeatherCatV1.14B232,2013-03-05 03:55:00,
2013-03-04 23:00:00,32.1,21.7,29.74,NNW,346,10.0,12.0,65,0.00,,,0.00,0,WeatherCatV1.14B232,2013-03-05 04:00:00,
2013-03-04 23:05:00,32.1,21.7,29.74,NW,317,2.0,12.0,65,0.00,,,0.00,0,WeatherCatV1.14B232,2013-03-05 04:05:00,
2013-03-04 23:10:00,32.1,21.7,29.74,West,281,7.0,11.0,65,0.00,,,0.00,0,WeatherCatV1.14B232,2013-03-05 04:10:00,
2013-03-04 23:15:00,32.0,21.6,29.73,WNW,302,5.0,10.0,65,0.00,,,0.00,0,WeatherCatV1.14B232,2013-03-05 04:15:00,
2013-03-04 23:20:00,32.0,21.6,29.73,WNW,296,6.0,9.0,65,0.00,,,0.00,0,WeatherCatV1.14B232,2013-03-05 04:20:00,
2013-03-04 23:25:00,32.0,21.6,29.73,West,275,6.0,12.0,65,0.00,,,0.00,0,WeatherCatV1.14B232,2013-03-05 04:25:00,
2013-03-04 23:30:00,32.0,21.6,29.74,WNW,302,6.0,12.0,65,0.00,,,0.00,0,WeatherCatV1.14B232,2013-03-05 04:30:00,
2013-03-04 23:35:00,32.0,21.6,29.73,West,279,5.0,9.0,65,0.00,,,0.00,0,WeatherCatV1.14B232,2013-03-05 04:35:00,
2013-03-04 23:40:00,31.9,21.9,29.74,NW,312,6.0,7.0,66,0.00,,,0.00,0,WeatherCatV1.14B232,2013-03-05 04:40:00,
2013-03-04 23:45:00,31.9,21.5,29.74,WNW,297,2.0,9.0,65,0.00,,,0.00,0,WeatherCatV1.14B232,2013-03-05 04:45:00,
2013-03-04 23:50:00,31.9,21.9,29.73,WNW,293,8.0,9.0,66,0.00,,,0.00,0,WeatherCatV1.14B232,2013-03-05 04:50:00,
2013-03-04 23:55:00,31.9,21.9,29.74,West,276,3.0,8.0,66,0.00,,,0.00,0,WeatherCatV1.14B232,2013-03-05 04:55:00,